Regional Weather Roundup
Issued by NWS

Current Version | Previous Version | Text Only | Print | Product List | Glossary On
Versions: 1 2 3 4 5 6 7 8 9 10 11 12 13 14 15 16 17 18 19 20 21 22 23 24 25 26 27 28 29 30 31 32 33 34 35 36 37 38 39 40 41 42 43 44 45 46 47 48 49 50
000
ASUS46 KPQR 310810
RWROR

OREGON REGIONAL WEATHER ROUNDUP
NATIONAL WEATHER SERVICE PORTLAND OR
100 AM PDT SUN AUG 31 2014

NOTE: "FAIR" INDICATES FEW OR NO CLOUDS BELOW 12,000 FEET WITH
NO SIGNIFICANT WEATHER AND/OR OBSTRUCTIONS TO VISIBILITY.

ORZ001>013-310900-
NORTHWEST OREGON


CITY           SKY/WX    TMP DP  RH WIND       PRES   REMARKS
ASTORIA        MOCLDY    58  56  93 CALM      30.01S
NEWPORT        FOG       59  57  94 CALM      30.08  VSB 1/4
PORTLAND       MOCLDY    59  52  77 CALM      30.03R
VANCOUVER WA   MOCLDY    57  50  77 CALM      30.02S
SCAPPOOSE      CLOUDY    56  52  86 CALM      30.02R
HILLSBORO      MOCLDY    56  52  86 CALM      30.03R
AURORA         CLOUDY    59  54  83 S5        30.04R
MCMINNVILLE    MOCLDY    59  54  83 CALM      30.04R
SALEM          PTCLDY    58  55  90 S5        30.03S
CORVALLIS      CLOUDY    55  54  94 SW3       30.06R
EUGENE         CLEAR     54  49  83 S3        30.05S
$$

ORZ021-028-310900-
SOUTHWEST OREGON


CITY           SKY/WX    TMP DP  RH WIND       PRES   REMARKS
NORTH BEND     CLOUDY    57  57 100 SE5       30.07R VSB 1/2
BROOKINGS      SUNNY     57  55  93 CALM      30.01S
ROSEBURG       CLEAR     58  51  78 CALM      30.05R
SEXTON SUMMIT  FOG       48  47  96 N8        30.08R VSB 3/4
MEDFORD        MOCLDY    64  51  62 NE3       30.02S
$$

ORZ009-041-310900-
COLUMBIA GORGE


CITY           SKY/WX    TMP DP  RH WIND       PRES   REMARKS
TROUTDALE      MOCLDY    57  55  93 E3        30.02R
THE DALLES     PTCLDY    63  46  54 W10       29.97R
$$

ORZ029>031-042>050-061>064-310900-
EASTERN OREGON


CITY           SKY/WX    TMP DP  RH WIND       PRES   REMARKS
REDMOND        MOCLDY    49  44  83 S3        30.04R
BEND           SUNNY     45  41  87 CALM      30.07R
KLAMATH FALLS  CLEAR     49  44  83 SE5       30.05S
LAKEVIEW       CLEAR     52  41  66 N7        30.08S
HERMISTON      CLEAR     61  49  64 SW13G20   29.93R
PENDLETON      CLOUDY    60  46  59 W22       29.94R
JOHN DAY       CLOUDY    53  51  94 CALM      30.02S
MEACHAM        CLOUDY    51  48  89 VRB3      30.01R
LA GRANDE      MOCLDY    52  41  66 CALM      29.98R
BAKER CITY     CLEAR     43  42  97 NW5       30.00R
BURNS          CLEAR     44  41  89 S6        30.04S
ROME             N/A     54  46  74 CALM      30.02S
ONTARIO        CLEAR     55  50  83 SW10      29.96S
$$


USA.gov is the U.S. government's official web portal to all federal, state and local government web resources and services.